Regional Weather Roundup
Issued by NWS

Home | Current Version | Previous Version | Text Only | Print | Product List | Glossary Off
Versions: 1 2 3 4 5 6 7 8 9 10 11 12 13 14 15 16 17 18 19 20 21 22 23 24 25 26 27 28 29 30 31 32 33 34 35 36 37 38 39 40 41 42 43 44 45 46 47 48 49 50

000
ASUS43 KDMX 261906
RWRIA

WEATHER ROUNDUP FOR IOWA
NATIONAL WEATHER SERVICE DES MOINES IA
200 PM CDT WED APR 26 2017

NOTE: "FAIR" INDICATES FEW OR NO CLOUDS BELOW 12,000 FEET WITH NO
SIGNIFICANT WEATHER AND/OR OBSTRUCTIONS TO VISIBILITY.

* - THESE STATIONS ARE NOT NWS STATIONS...THUS NOT UNDER NWS
QUALITY CONTROL.  THEY ALSO DO NOT REPORT WEATHER SUCH
AS PRECIPITATION OR FOG.

IAZ001>003-012>014-020>022-031>034-043>046-262000-
   NORTHWEST IOWA

CITY           SKY/WX    TMP DP  RH WIND       PRES   REMARKS
CARROLL *      CLOUDY    43  39  87 NW18G29   29.59F
CHEROKEE *     CLOUDY    38  35  90 NW12G20   29.65F WCI  30
DENISON *      CLOUDY    39  36  87 NW18G28   29.64F WCI  30
LE MARS *      CLOUDY    37  32  81 NW16      29.69F WCI  28
ORANGE CITY *  CLOUDY    36  34  93 NW12G20   29.67S WCI  27
SHELDON *      MIX PCPN  36  34  93 NW17      29.65R WCI  25
SIOUX CITY     CLOUDY    38  32  79 N18G26    29.69F WCI  28
SPENCER        CLOUDY    40  35  83 NW17      29.62S WCI  31
STORM LAKE *   MIX PCPN  37  36  93 NW18G25   29.62F WCI  27
$$

IAZ055>058-069>071-079>083-090>094-262000-
   SOUTHWEST IOWA

CITY           SKY/WX    TMP DP  RH WIND       PRES   REMARKS
ATLANTIC *     CLOUDY    43  37  81 NW17G24   29.62F
AUDUBON *      CLOUDY    43  36  75 NW16G23   29.61F
CLARINDA *     CLOUDY    45  36  70 NW16      29.66R
COUNCIL BLFS *   N/A     41  36  81 NW21G31   29.64F
CRESTON *      CLOUDY    46  37  71 NW17      29.61S
HARLAN  *      CLOUDY    41  37  87 NW24      29.64F
LAMONI         CLOUDY    48  40  73 NW14      29.59F
RED OAK *      CLOUDY    45  36  70 NW17G25   29.64S
SHENANDOAH *   CLOUDY    48  36  61 NW14G22   29.65R
$$

IAZ047>049-059>061-072>074-084-262000-
   CENTRAL IOWA

CITY           SKY/WX    TMP DP  RH WIND       PRES   REMARKS
AMES           CLOUDY    48  40  73 NW16      29.57R
ANKENY *       CLOUDY    48  39  71 NW14G21   29.58F
BOONE *        CLOUDY    45  39  81 NW21G29   29.56S
CHARITON *     CLOUDY    48  43  81 W14       29.57F
DES MOINES     CLOUDY    50  38  63 NW16      29.57F
GRINNELL*      CLOUDY    48  42  79 NW20G25   29.56F
KNOXVILLE *    CLOUDY    50  41  71 NW16      29.55F
MARSHALLTOWN   CLOUDY    49  40  71 W16       29.56R
NEWTON *       CLOUDY    50  41  71 NW15      29.54F
PELLA *        CLOUDY    49  42  76 W15G21    29.56F
PERRY *        CLOUDY    46  38  74 NW14G20   29.59F
$$

IAZ004>006-015-016-023>025-035-036-262000-
   NORTH CENTRAL IOWA

CITY           SKY/WX    TMP DP  RH WIND       PRES   REMARKS
ALGONA *       CLOUDY    41  37  87 NW17G25   29.58S
CLARION *      CLOUDY    45  41  87 NW23      29.56R
ESTHERVILLE    CLOUDY    40  37  89 NW21      29.59F WCI  30
FORT DODGE *   CLOUDY    43  36  75 NW15G23   29.59S
MASON CITY     CLOUDY    42  38  85 NW21      29.55S
FOREST CITY *    N/A    N/A N/A N/A MISG        N/A
WEBSTER CITY * CLOUDY    45  37  76 NW21G29   29.55S
IOWA FALLS *   CLOUDY    47  39  73 NW20      29.56R
$$

IAZ007>011-017>019-026>030-037>042-050>054-066-262000-
   NORTHEAST IOWA

CITY           SKY/WX    TMP DP  RH WIND       PRES   REMARKS
CEDAR RAPIDS   CLOUDY    48  46  93 W14       29.52S
CHARLES CITY * CLOUDY    45  43  93 NW17G24   29.51R
CLINTON *      CLOUDY    54  51  90 W16       29.50S
DECORAH *      CLOUDY    45  43  93 VRB6      29.47R
DUBUQUE        CLOUDY    50  48  93 W18       29.49R
MONTICELLO *   CLOUDY    50  48  93 W14       29.49S
OELWEIN *      CLOUDY    46  46 100 W15       29.53R
WATERLOO       CLOUDY    47  40  76 NW15      29.53R
$$

IAZ064-065-067-068-078-262000-
   EAST CENTRAL IOWA

CITY           SKY/WX    TMP DP  RH WIND       PRES   REMARKS
DAVENPORT      CLOUDY    52  48  86 W16       29.50F
IOWA CITY      CLOUDY    51  44  77 W16       29.54R
MT. PLEASANT * CLOUDY    48  45  88 W12       29.56R
MUSCATINE *    CLOUDY    52  46  82 W12       29.52F
QUAD CITIES    CLOUDY    54  48  80 SW9       29.51S
$$

IAZ062-063-075>077-085>089-095>099-262000-
   SOUTHEAST IOWA

CITY           SKY/WX    TMP DP  RH WIND       PRES   REMARKS
BURLINGTON     CLOUDY    51  48  89 SW9       29.55R
FAIRFIELD *    CLOUDY    48  41  76 W16       29.56S
FORT MADISON * CLOUDY    52  46  82 W9        29.56F
KEOKUK *       CLOUDY    52  46  82 NW9       29.55F
OSKALOOSA *    CLOUDY    48  42  80 W16       29.57F
CENTERVILLE *  CLOUDY    48  41  76 W10       29.59F
OTTUMWA        CLOUDY    48  43  82 W12       29.57R
WASHINGTON *   CLOUDY    48  45  87 W14       29.56S
$$

ABBREVIATIONS USED IN REMARKS
   TC - TEMPERATURES IN CELSIUS
  WCI - WIND CHILL INDEX
   HX - HEAT INDEX
  VSB - VISIBILITY
$$





USA.gov is the U.S. government's official web portal to all federal, state and local government web resources and services.